Location: Gleizolles
(44.4833°N, 6.7667°E)
Time: 00:17:11
(UTC+00:00)

BREEZE-M DEB (TANK) - Pass Details

Date: 09 April 2020
Orbit: 317 x 11716 km, 49.7° (Epoch: 01 June)

Event Time Altitude Azimuth Distance (km) Brightness Sun altitude
Rises 19:34:46 0° 221° (SW) 5,005 8.4 -14.9°
Reaches altitude 10° 19:39:33 10° 214° (SW) 2,839 7.0 -15.7°
Maximum altitude 19:44:28 31° 152° (SSE) 941 4.0 -16.4°
Enters shadow 19:44:36 31° 147° (SSE) 926 4.0 -16.4°
